Location: Port Hueneme
(34.1478°N, 119.1951°W)
Time: 21:51:12
(UTC+00:00)

Cosmos 1943 - Visible Passes

Search period start: 18 November 2025 00:00
Search period end: 28 November 2025 00:00
Orbit: 833 x 847 km, 71.0° (Epoch: 17 November)

Date Brightness Start Highest point End Pass type
(mag) Time Alt. Az. Time Alt. Az. Time Alt. Az.
18 Nov 6.1 11:24:19 10° ESE 11:26:18 12° E 11:28:17 10° ENE visible
18 Nov 3.1 13:03:59 10° SSW 13:09:33 71° WNW 13:15:10 10° NNE visible
19 Nov 6.1 11:09:23 10° ESE 11:10:43 11° E 11:12:03 10° E visible
19 Nov 3.0 12:48:21 10° SSW 12:53:56 76° WNW 12:59:33 10° NNE visible
20 Nov 3.0 12:34:22 20° SSW 12:38:18 81° WNW 12:43:56 10° NNE visible
21 Nov 3.0 12:22:31 84° SW 12:22:41 87° WNW 12:28:18 10° NNE visible
21 Nov 4.9 14:06:06 10° WNW 14:07:28 11° NW 14:08:49 10° NW visible
22 Nov 4.0 12:09:12 40° NNE 12:09:12 40° NNE 12:12:41 10° NNE visible
22 Nov 4.9 13:51:04 11° WNW 13:51:47 12° NW 13:53:41 10° NNW visible
23 Nov 5.0 11:55:17 21° NNE 11:55:17 21° NNE 11:57:03 10° NNE visible
23 Nov 5.0 13:37:08 12° NW 13:37:08 12° NW 13:38:25 10° NNW visible
24 Nov 5.7 11:41:02 12° NNE 11:41:02 12° NNE 11:41:25 10° NNE visible
24 Nov 5.2 13:22:51 10° NNW 13:22:51 10° NNW 13:23:05 10° NNW visible
